FBU80G KSFO-NTAA

Flight info

Callsign FBU80G
Flight time N/A
Altitude 36000
Route GNNRR3 CINNY DCT ALANN DCT ADUMM DCT 33N130W DCT DADIE DCT 30N133W 25N136W 20N138W 15N139W/N0492F380 10N140W DCT MAEVA DCT 00N142W 04S143W DCT ROBKO G575 REPAR DCT ASOKI ASOKI4T
Aircraft A359/H-SDE2E3GHIJ1J3J4J5LM1ORWXY/LB1D1

Departure

Time 2026-05-05 17:57
Airport San Francisco International Airport (KSFO)

Arrival

Time N/A
Airport Fa'a'ā International Airport (NTAA)
Time Latitude Longitude Altitude Speed Heading
2026-05-05 14:05 37.61351 -122.38816 28 ft 0 kts 297°
2026-05-05 17:33 37.61349 -122.38812 28 ft 3 kts 297°
2026-05-05 17:34 37.61337 -122.38783 28 ft 3 kts 297°
2026-05-05 17:34 37.61327 -122.38760 27 ft 4 kts 302°
2026-05-05 17:34 37.61312 -122.38731 26 ft 4 kts 302°
2026-05-05 17:34 37.61301 -122.38702 27 ft 3 kts 277°
2026-05-05 17:35 37.61296 -122.38715 28 ft 4 kts 234°
2026-05-05 17:35 37.61274 -122.38732 28 ft 4 kts 207°
2026-05-05 17:35 37.61252 -122.38746 28 ft 4 kts 207°
2026-05-05 17:35 37.61228 -122.38761 28 ft 4 kts 207°
2026-05-05 17:36 37.61204 -122.38777 28 ft 4 kts 207°
2026-05-05 17:36 37.61180 -122.38793 28 ft 4 kts 207°
2026-05-05 17:36 37.61156 -122.38809 28 ft 4 kts 207°
2026-05-05 17:36 37.61143 -122.38818 28 ft 0 kts 207°
2026-05-05 17:43 37.61140 -122.38820 28 ft 1 kts 207°
2026-05-05 17:43 37.61120 -122.38833 28 ft 6 kts 207°
2026-05-05 17:43 37.61073 -122.38864 28 ft 9 kts 207°
2026-05-05 17:44 37.61010 -122.38854 28 ft 11 kts 141°
2026-05-05 17:44 37.60967 -122.38764 28 ft 13 kts 117°
2026-05-05 17:44 37.60921 -122.38652 28 ft 15 kts 118°
2026-05-05 17:44 37.60869 -122.38535 28 ft 15 kts 130°
2026-05-05 17:45 37.60771 -122.38501 28 ft 15 kts 179°
2026-05-05 17:45 37.60677 -122.38473 28 ft 14 kts 143°
2026-05-05 17:45 37.60608 -122.38380 28 ft 15 kts 130°
2026-05-05 17:45 37.60541 -122.38277 28 ft 15 kts 127°
2026-05-05 17:46 37.60503 -122.38160 28 ft 15 kts 90°
2026-05-05 17:46 37.60517 -122.38027 28 ft 15 kts 77°
2026-05-05 17:46 37.60592 -122.37937 28 ft 16 kts 28°
2026-05-05 17:46 37.60688 -122.37871 28 ft 15 kts 28°
2026-05-05 17:47 37.60783 -122.37810 27 ft 16 kts 27°
2026-05-05 17:47 37.60880 -122.37747 28 ft 16 kts 27°
2026-05-05 17:47 37.60981 -122.37681 27 ft 17 kts 27°
2026-05-05 17:47 37.61082 -122.37613 28 ft 16 kts 28°
2026-05-05 17:48 37.61182 -122.37547 28 ft 16 kts 27°
2026-05-05 17:48 37.61277 -122.37484 28 ft 12 kts 27°
2026-05-05 17:48 37.61354 -122.37432 28 ft 13 kts 28°
2026-05-05 17:48 37.61436 -122.37379 28 ft 14 kts 27°
2026-05-05 17:49 37.61517 -122.37317 28 ft 13 kts 42°
2026-05-05 17:49 37.61561 -122.37214 28 ft 14 kts 77°
2026-05-05 17:49 37.61543 -122.37094 28 ft 15 kts 115°
2026-05-05 17:49 37.61496 -122.36978 28 ft 15 kts 119°
2026-05-05 17:50 37.61429 -122.36870 28 ft 16 kts 133°
2026-05-05 17:50 37.61356 -122.36761 28 ft 16 kts 121°
2026-05-05 17:50 37.61306 -122.36638 28 ft 14 kts 117°
2026-05-05 17:50 37.61261 -122.36531 28 ft 13 kts 117°
2026-05-05 17:51 37.61218 -122.36429 28 ft 12 kts 118°
2026-05-05 17:51 37.61179 -122.36338 28 ft 11 kts 118°
2026-05-05 17:51 37.61142 -122.36250 28 ft 12 kts 118°
2026-05-05 17:51 37.61103 -122.36157 28 ft 5 kts 117°
2026-05-05 17:52 37.61089 -122.36124 28 ft 5 kts 118°
2026-05-05 17:52 37.61072 -122.36082 27 ft 6 kts 117°
2026-05-05 17:52 37.61064 -122.36064 28 ft 0 kts 117°
2026-05-05 17:54 37.61062 -122.36059 28 ft 3 kts 117°
2026-05-05 17:54 37.61049 -122.36004 28 ft 10 kts 95°
2026-05-05 17:55 37.61074 -122.35923 28 ft 7 kts 45°
2026-05-05 17:55 37.61121 -122.35888 28 ft 8 kts 28°
2026-05-05 17:55 37.61173 -122.35863 28 ft 6 kts 357°
2026-05-05 17:55 37.61193 -122.35888 28 ft 0 kts 298°
2026-05-05 17:56 37.61193 -122.35889 28 ft 1 kts 298°
2026-05-05 17:56 37.61254 -122.36035 28 ft 49 kts 297°
2026-05-05 17:56 37.61521 -122.36671 28 ft 113 kts 298°
2026-05-05 17:56 37.61979 -122.37763 45 ft 165 kts 298°
2026-05-05 17:57 37.62535 -122.39076 571 ft 174 kts 300°
2026-05-05 17:57 37.63140 -122.40455 1181 ft 185 kts 300°
2026-05-05 17:57 37.63744 -122.41919 1851 ft 186 kts 299°
2026-05-05 17:57 37.64316 -122.43342 2476 ft 179 kts 298°
2026-05-05 17:58 37.64904 -122.44763 2796 ft 189 kts 301°
2026-05-05 17:58 37.65594 -122.46252 2954 ft 206 kts 302°
2026-05-05 17:58 37.66263 -122.47927 3105 ft 227 kts 291°
2026-05-05 17:58 37.66553 -122.49961 3303 ft 247 kts 271°
2026-05-05 17:59 37.66175 -122.52122 3696 ft 260 kts 248°
2026-05-05 17:59 37.65186 -122.54062 4261 ft 267 kts 233°
2026-05-05 17:59 37.64001 -122.55883 4904 ft 271 kts 231°
2026-05-05 17:59 37.62777 -122.57721 5421 ft 276 kts 232°
2026-05-05 18:00 37.61553 -122.59596 6024 ft 278 kts 232°
2026-05-05 18:00 37.60320 -122.61491 6570 ft 281 kts 232°
2026-05-05 18:00 37.59080 -122.63418 7044 ft 286 kts 233°
2026-05-05 18:00 37.57816 -122.65383 7466 ft 291 kts 233°
2026-05-05 18:01 37.56536 -122.67376 7932 ft 294 kts 233°
2026-05-05 18:01 37.55239 -122.69394 8414 ft 299 kts 233°
2026-05-05 18:01 37.53920 -122.71444 8882 ft 303 kts 233°
2026-05-05 18:01 37.52583 -122.73519 9373 ft 307 kts 233°
2026-05-05 18:02 37.51225 -122.75627 9814 ft 312 kts 234°
2026-05-05 18:02 37.49847 -122.77766 10195 ft 319 kts 234°
2026-05-05 18:02 37.48424 -122.79977 10381 ft 331 kts 234°
2026-05-05 18:02 37.46946 -122.82272 10591 ft 343 kts 234°
2026-05-05 18:03 37.45415 -122.84644 10809 ft 355 kts 233°
2026-05-05 18:03 37.43830 -122.87096 11043 ft 367 kts 233°
2026-05-05 18:03 37.42195 -122.89625 11245 ft 378 kts 233°
2026-05-05 18:03 37.40516 -122.92220 11453 ft 388 kts 233°
2026-05-05 18:04 37.38791 -122.94882 11641 ft 397 kts 233°
2026-05-05 18:04 37.37036 -122.97589 11962 ft 402 kts 233°
2026-05-05 18:04 37.35262 -123.00322 12337 ft 405 kts 233°
2026-05-05 18:04 37.33474 -123.03073 12741 ft 407 kts 233°
2026-05-05 18:05 37.31678 -123.05835 13149 ft 409 kts 233°
2026-05-05 18:05 37.29871 -123.08611 13561 ft 411 kts 233°
2026-05-05 18:05 37.28056 -123.11400 13956 ft 414 kts 233°
2026-05-05 18:05 37.26227 -123.14206 14320 ft 416 kts 233°
2026-05-05 18:06 37.24414 -123.16985 14668 ft 418 kts 233°
2026-05-05 18:06 37.23792 -123.17939 14779 ft 418 kts 233°
2026-05-05 18:06 37.20717 -123.22647 15388 ft 421 kts 233°
2026-05-05 18:06 37.18855 -123.25495 15760 ft 423 kts 233°
2026-05-05 18:07 37.16983 -123.28356 16118 ft 425 kts 233°
2026-05-05 18:07 37.15103 -123.31225 16483 ft 427 kts 233°
2026-05-05 18:07 37.13213 -123.34108 16842 ft 429 kts 233°
2026-05-05 18:07 37.11314 -123.37002 17203 ft 431 kts 233°
2026-05-05 18:08 37.09408 -123.39905 17555 ft 432 kts 233°
2026-05-05 18:08 37.07492 -123.42820 17901 ft 434 kts 233°
2026-05-05 18:08 37.05569 -123.45744 18244 ft 436 kts 233°
2026-05-05 18:08 37.03633 -123.48683 18556 ft 438 kts 233°
2026-05-05 18:09 37.01690 -123.51632 18824 ft 441 kts 233°
2026-05-05 18:09 36.99733 -123.54598 19079 ft 443 kts 233°
2026-05-05 18:09 36.97765 -123.57580 19356 ft 446 kts 233°
2026-05-05 18:09 36.95786 -123.60575 19621 ft 448 kts 233°
2026-05-05 18:10 36.93795 -123.63585 19876 ft 450 kts 233°
2026-05-05 18:10 36.91793 -123.66609 20127 ft 453 kts 233°
2026-05-05 18:10 36.89782 -123.69644 20380 ft 454 kts 232°
2026-05-05 18:10 36.87764 -123.72688 20658 ft 456 kts 232°
2026-05-05 18:11 36.85734 -123.75745 20914 ft 458 kts 232°
2026-05-05 18:11 36.83694 -123.78816 21165 ft 461 kts 232°
2026-05-05 18:11 36.81644 -123.81899 21412 ft 463 kts 232°
2026-05-05 18:11 36.79583 -123.84995 21674 ft 465 kts 232°
2026-05-05 18:12 36.77511 -123.88104 21948 ft 467 kts 232°
2026-05-05 18:12 36.75429 -123.91225 22189 ft 469 kts 232°
2026-05-05 18:12 36.73334 -123.94364 22424 ft 472 kts 232°
2026-05-05 18:12 36.71230 -123.97514 22692 ft 473 kts 232°
2026-05-05 18:13 36.69121 -124.00668 22955 ft 475 kts 232°
2026-05-05 18:13 36.66998 -124.03839 23187 ft 477 kts 232°
2026-05-05 18:13 36.64866 -124.07021 23438 ft 480 kts 232°
2026-05-05 18:13 36.62724 -124.10215 23667 ft 482 kts 232°
2026-05-05 18:14 36.60570 -124.13424 23879 ft 484 kts 232°
2026-05-05 18:14 36.58408 -124.16642 24077 ft 486 kts 232°
2026-05-05 18:14 36.56970 -124.18779 24213 ft 487 kts 232°
2026-05-05 18:14 36.54793 -124.22014 24403 ft 489 kts 231°
2026-05-05 18:15 36.52608 -124.25257 24659 ft 489 kts 231°
2026-05-05 18:15 36.50420 -124.28502 24865 ft 491 kts 231°
2026-05-05 18:15 36.48221 -124.31759 25075 ft 493 kts 231°
2026-05-05 18:15 36.45297 -124.36087 25333 ft 495 kts 231°
2026-05-05 18:16 36.43798 -124.38304 25484 ft 496 kts 231°
2026-05-05 18:16 36.41571 -124.41594 25685 ft 498 kts 231°
2026-05-05 18:16 36.39337 -124.44891 25893 ft 500 kts 231°
2026-05-05 18:16 36.37092 -124.48201 26094 ft 502 kts 231°
2026-05-05 18:17 36.34845 -124.51509 26414 ft 501 kts 231°
2026-05-05 18:17 36.32599 -124.54813 26673 ft 502 kts 231°
2026-05-05 18:17 36.30343 -124.58130 26870 ft 504 kts 231°
2026-05-05 18:17 36.28077 -124.61457 27080 ft 506 kts 231°
2026-05-05 18:18 36.25801 -124.64797 27310 ft 508 kts 231°
2026-05-05 18:18 36.23518 -124.68144 27529 ft 510 kts 231°
2026-05-05 18:18 36.21225 -124.71501 27743 ft 511 kts 231°
2026-05-05 18:18 36.18949 -124.74893 27964 ft 512 kts 233°
2026-05-05 18:19 36.16904 -124.78500 28248 ft 512 kts 238°
2026-05-05 18:19 36.14993 -124.82221 28449 ft 513 kts 240°
2026-05-05 18:19 36.13138 -124.86004 28651 ft 515 kts 240°
2026-05-05 18:19 36.11304 -124.89820 28855 ft 517 kts 241°
2026-05-05 18:20 36.09467 -124.93649 29046 ft 519 kts 240°
2026-05-05 18:20 36.07618 -124.97483 29248 ft 520 kts 240°
2026-05-05 18:20 36.05777 -125.01275 29463 ft 521 kts 240°
2026-05-05 18:20 36.03906 -125.05105 29757 ft 521 kts 240°
2026-05-05 18:21 36.02026 -125.08936 29942 ft 523 kts 240°
2026-05-05 18:21 36.00132 -125.12784 30110 ft 525 kts 240°
2026-05-05 18:21 35.98232 -125.16637 30274 ft 527 kts 240°
2026-05-05 18:21 35.96322 -125.20505 30414 ft 528 kts 240°
2026-05-05 18:22 35.94405 -125.24383 30556 ft 530 kts 240°
2026-05-05 18:22 35.92486 -125.28262 30839 ft 528 kts 239°
2026-05-05 18:22 35.90574 -125.32120 31089 ft 527 kts 239°
2026-05-05 18:22 35.88659 -125.35984 31255 ft 529 kts 239°
2026-05-05 18:23 35.86739 -125.39853 31426 ft 530 kts 239°
2026-05-05 18:23 35.84814 -125.43729 31604 ft 530 kts 239°
2026-05-05 18:23 35.82887 -125.47603 31839 ft 529 kts 239°
2026-05-05 18:23 35.80965 -125.51462 32117 ft 528 kts 239°
2026-05-05 18:24 35.79047 -125.55311 32352 ft 527 kts 239°
2026-05-05 18:24 35.77125 -125.59162 32513 ft 528 kts 239°
2026-05-05 18:24 35.75200 -125.63017 32678 ft 529 kts 239°
2026-05-05 18:24 35.73270 -125.66875 32848 ft 530 kts 239°
2026-05-05 18:25 35.71338 -125.70735 33024 ft 530 kts 239°
2026-05-05 18:25 35.70031 -125.73343 33132 ft 530 kts 239°
2026-05-05 18:25 35.67466 -125.78455 33410 ft 529 kts 238°
2026-05-05 18:25 35.65533 -125.82303 33642 ft 529 kts 238°
2026-05-05 18:26 35.63598 -125.86150 33791 ft 530 kts 238°
2026-05-05 18:26 35.61658 -125.90004 33947 ft 530 kts 238°
2026-05-05 18:26 35.59710 -125.93852 34127 ft 531 kts 237°
2026-05-05 18:26 35.57661 -125.97622 34262 ft 531 kts 235°
2026-05-05 18:27 35.55526 -126.01316 34458 ft 529 kts 233°
2026-05-05 18:27 35.53357 -126.04966 34663 ft 528 kts 233°
2026-05-05 18:27 35.51185 -126.08592 34870 ft 527 kts 233°
2026-05-05 18:27 35.49020 -126.12213 35047 ft 526 kts 233°
2026-05-05 18:28 35.44722 -126.19455 35403 ft 524 kts 234°
2026-05-05 18:28 35.42585 -126.23076 35573 ft 523 kts 234°
2026-05-05 18:28 35.40456 -126.26687 35750 ft 522 kts 234°
2026-05-05 18:29 35.38337 -126.30282 35987 ft 519 kts 234°
2026-05-05 18:29 35.36222 -126.33867 36125 ft 519 kts 234°
2026-05-05 18:29 35.31964 -126.41073 36150 ft 525 kts 234°
2026-05-05 18:30 35.27671 -126.48319 36153 ft 525 kts 234°
2026-05-05 18:30 35.23398 -126.55516 36152 ft 521 kts 234°
2026-05-05 18:31 35.19142 -126.62669 36153 ft 520 kts 234°
2026-05-05 18:31 35.14886 -126.69808 36159 ft 520 kts 234°
2026-05-05 18:32 35.10654 -126.76892 36157 ft 519 kts 234°
2026-05-05 18:32 35.06398 -126.84002 36160 ft 518 kts 234°
2026-05-05 18:33 35.02142 -126.91098 36159 ft 518 kts 234°
2026-05-05 18:33 34.97882 -126.98186 36161 ft 518 kts 234°
2026-05-05 18:34 34.93624 -127.05256 36163 ft 517 kts 234°
2026-05-05 18:34 34.89365 -127.12314 36164 ft 517 kts 234°
2026-05-05 18:35 34.85106 -127.19359 36170 ft 517 kts 234°
2026-05-05 18:35 34.80844 -127.26394 36165 ft 516 kts 234°
2026-05-05 18:36 34.76581 -127.33415 36171 ft 515 kts 234°
2026-05-05 18:36 34.72324 -127.40414 36170 ft 514 kts 234°
2026-05-05 18:37 34.68068 -127.47399 36172 ft 514 kts 233°
2026-05-05 18:37 34.63807 -127.54378 36175 ft 514 kts 234°
2026-05-05 18:38 34.59547 -127.61340 36176 ft 514 kts 233°
2026-05-05 18:38 34.55281 -127.68299 36178 ft 514 kts 233°
2026-05-05 18:39 34.51014 -127.75246 36180 ft 514 kts 233°
2026-05-05 18:39 34.46741 -127.82190 36182 ft 514 kts 233°
2026-05-05 18:40 34.42464 -127.89126 36181 ft 514 kts 233°
2026-05-05 18:40 34.38186 -127.96051 36180 ft 514 kts 233°
2026-05-05 18:41 34.33930 -128.02927 36188 ft 514 kts 233°
2026-05-05 18:41 34.29643 -128.09839 36189 ft 514 kts 233°
2026-05-05 18:42 34.25355 -128.16739 36189 ft 513 kts 233°
2026-05-05 18:42 34.21073 -128.23618 36192 ft 511 kts 233°
2026-05-05 18:43 34.16797 -128.30472 36191 ft 511 kts 233°
2026-05-05 18:43 34.12518 -128.37320 36192 ft 511 kts 233°
2026-05-05 18:44 34.08237 -128.44157 36193 ft 511 kts 233°
2026-05-05 18:44 34.03952 -128.50988 36201 ft 511 kts 233°
2026-05-05 18:45 33.99661 -128.57815 36199 ft 511 kts 233°
2026-05-05 18:45 33.95368 -128.64634 36196 ft 511 kts 233°
2026-05-05 18:46 33.91075 -128.71438 36199 ft 510 kts 233°
2026-05-05 18:46 33.86781 -128.78221 36201 ft 509 kts 233°
2026-05-05 18:47 33.82295 -128.84816 36205 ft 509 kts 230°
2026-05-05 18:47 33.77686 -128.91292 36204 ft 509 kts 230°
2026-05-05 18:48 33.73089 -128.97747 36201 ft 508 kts 230°
2026-05-05 18:48 33.68545 -129.04165 36209 ft 508 kts 230°
2026-05-05 18:49 33.63977 -129.10627 36207 ft 508 kts 230°
2026-05-05 18:49 33.59408 -129.17084 36217 ft 507 kts 231°
2026-05-05 18:50 33.54843 -129.23522 36204 ft 507 kts 231°
2026-05-05 18:50 33.50274 -129.29953 36219 ft 507 kts 231°
2026-05-05 18:51 33.45700 -129.36378 36212 ft 506 kts 231°
2026-05-05 18:51 33.41134 -129.42783 36216 ft 505 kts 231°
2026-05-05 18:52 33.36570 -129.49170 36218 ft 505 kts 231°
2026-05-05 18:52 33.32012 -129.55532 36216 ft 502 kts 231°
2026-05-05 18:53 33.27476 -129.61865 36216 ft 500 kts 232°
2026-05-05 18:53 33.22955 -129.68163 36218 ft 499 kts 232°
2026-05-05 18:54 33.18433 -129.74449 36220 ft 499 kts 232°
2026-05-05 18:54 33.13907 -129.80729 36207 ft 499 kts 232°
2026-05-05 18:55 33.09390 -129.86987 36219 ft 497 kts 232°
2026-05-05 18:55 33.04909 -129.93183 36221 ft 496 kts 232°
2026-05-05 18:56 33.00394 -129.99412 36222 ft 497 kts 231°
2026-05-05 18:56 32.95582 -130.05343 36220 ft 499 kts 227°
2026-05-05 18:57 32.90571 -130.11035 36224 ft 497 kts 227°
2026-05-05 18:57 32.85575 -130.16701 36224 ft 496 kts 228°
2026-05-05 18:58 32.80617 -130.22391 36230 ft 495 kts 228°
2026-05-05 18:58 32.75672 -130.28094 36227 ft 495 kts 229°
2026-05-05 18:59 32.70744 -130.33770 36227 ft 493 kts 229°
2026-05-05 18:59 32.65818 -130.39434 36230 ft 493 kts 229°
2026-05-05 19:00 32.60887 -130.45092 36232 ft 493 kts 229°
2026-05-05 19:00 32.55959 -130.50738 36221 ft 491 kts 230°
2026-05-05 19:01 32.51060 -130.56334 36233 ft 488 kts 230°
2026-05-05 19:01 32.46177 -130.61909 36234 ft 487 kts 230°
2026-05-05 19:02 32.42122 -130.66534 36234 ft 487 kts 230°
2026-05-05 19:02 32.37238 -130.72096 36234 ft 487 kts 230°
2026-05-05 19:03 32.32350 -130.77653 36239 ft 487 kts 230°
2026-05-05 19:03 32.27459 -130.83204 36238 ft 487 kts 230°
2026-05-05 19:04 32.22567 -130.88747 36236 ft 487 kts 230°
2026-05-05 19:04 32.17670 -130.94286 36234 ft 487 kts 230°
2026-05-05 19:05 32.12784 -130.99803 36238 ft 486 kts 230°
2026-05-05 19:05 32.07897 -131.05316 36238 ft 486 kts 230°
2026-05-05 19:06 32.03009 -131.10821 36237 ft 486 kts 230°
2026-05-05 19:06 31.98115 -131.16324 36245 ft 487 kts 230°
2026-05-05 19:07 31.93216 -131.21824 36243 ft 487 kts 230°
2026-05-05 19:07 31.88310 -131.27322 36236 ft 487 kts 230°
2026-05-05 19:08 31.83404 -131.32812 36248 ft 487 kts 230°
2026-05-05 19:08 31.78497 -131.38295 36238 ft 486 kts 229°
2026-05-05 19:09 31.73626 -131.43729 36240 ft 486 kts 229°
2026-05-05 19:09 31.68722 -131.49192 36242 ft 486 kts 229°
2026-05-05 19:10 31.63816 -131.54649 36242 ft 486 kts 229°
2026-05-05 19:10 31.58908 -131.60099 36237 ft 486 kts 229°
2026-05-05 19:11 31.53997 -131.65545 36245 ft 486 kts 229°
2026-05-05 19:11 31.49083 -131.70986 36242 ft 486 kts 229°
2026-05-05 19:12 31.44168 -131.76418 36240 ft 486 kts 229°
2026-05-05 19:12 31.39254 -131.81843 36241 ft 486 kts 230°
2026-05-05 19:13 31.34336 -131.87264 36245 ft 486 kts 230°
2026-05-05 19:13 31.29417 -131.92677 36247 ft 486 kts 230°
2026-05-05 19:14 31.24496 -131.98084 36245 ft 486 kts 230°
2026-05-05 19:14 31.19569 -132.03493 36245 ft 486 kts 230°
2026-05-05 19:15 31.14635 -132.08898 36249 ft 486 kts 230°
2026-05-05 19:15 31.09532 -132.14123 36250 ft 493 kts 223°
2026-05-05 19:16 31.03916 -132.18764 36249 ft 495 kts 221°
2026-05-05 19:16 30.98204 -132.23275 36249 ft 496 kts 221°
2026-05-05 19:17 30.92517 -132.27737 36246 ft 496 kts 221°
2026-05-05 19:17 30.86800 -132.32234 36249 ft 496 kts 221°
2026-05-05 19:18 30.81086 -132.36737 36249 ft 496 kts 221°
2026-05-05 19:18 30.75375 -132.41234 36222 ft 495 kts 221°
2026-05-05 19:19 30.69680 -132.45709 36251 ft 493 kts 221°
2026-05-05 19:19 30.63995 -132.50172 36250 ft 493 kts 221°
2026-05-05 19:20 30.58310 -132.54630 36251 ft 493 kts 221°
2026-05-05 19:20 30.52622 -132.59082 36248 ft 493 kts 221°
2026-05-05 19:21 30.46932 -132.63529 36237 ft 493 kts 220°
2026-05-05 19:21 30.41249 -132.67963 36256 ft 492 kts 220°
2026-05-05 19:22 30.35569 -132.72390 36253 ft 492 kts 220°
2026-05-05 19:22 30.29890 -132.76811 36255 ft 492 kts 220°
2026-05-05 19:23 30.24205 -132.81228 36254 ft 492 kts 220°
2026-05-05 19:23 30.18520 -132.85640 36259 ft 492 kts 220°
2026-05-05 19:24 30.12835 -132.90045 36258 ft 492 kts 220°
2026-05-05 19:24 30.07188 -132.94415 36261 ft 492 kts 220°
2026-05-05 19:25 30.01497 -132.98810 36257 ft 493 kts 220°
2026-05-05 19:25 29.95536 -133.02810 36234 ft 497 kts 216°
2026-05-05 19:26 29.89483 -133.06654 36257 ft 497 kts 215°
2026-05-05 19:26 29.83417 -133.10461 36257 ft 496 kts 215°
2026-05-05 19:27 29.77363 -133.14262 36258 ft 495 kts 215°
2026-05-05 19:27 29.71315 -133.18064 36258 ft 495 kts 215°
2026-05-05 19:28 29.65270 -133.21864 36262 ft 495 kts 215°
2026-05-05 19:28 29.59222 -133.25657 36250 ft 494 kts 214°
2026-05-05 19:29 29.53190 -133.29437 36260 ft 494 kts 214°
2026-05-05 19:29 29.47162 -133.33210 36259 ft 493 kts 214°
2026-05-05 19:30 29.41131 -133.36979 36260 ft 493 kts 214°
2026-05-05 19:30 29.35102 -133.40742 36260 ft 494 kts 214°
2026-05-05 19:31 29.29069 -133.44502 36254 ft 493 kts 214°
2026-05-05 19:31 29.23044 -133.48250 36262 ft 492 kts 214°
2026-05-05 19:32 29.17026 -133.51991 36265 ft 492 kts 214°
2026-05-05 19:32 29.11004 -133.55729 36262 ft 492 kts 214°
2026-05-05 19:33 29.04983 -133.59462 36263 ft 492 kts 214°
2026-05-05 19:33 28.98961 -133.63190 36248 ft 492 kts 214°
2026-05-05 19:34 28.92938 -133.66911 36260 ft 492 kts 214°
2026-05-05 19:35 28.83908 -133.72485 36259 ft 492 kts 214°
2026-05-05 19:35 28.77887 -133.76195 36262 ft 492 kts 214°
2026-05-05 19:36 28.71905 -133.79877 36259 ft 492 kts 213°
2026-05-05 19:36 28.65888 -133.83575 36258 ft 491 kts 213°
2026-05-05 19:37 28.59869 -133.87267 36259 ft 491 kts 213°
2026-05-05 19:37 28.53853 -133.90954 36260 ft 491 kts 213°
2026-05-05 19:38 28.47835 -133.94638 36264 ft 491 kts 213°
2026-05-05 19:38 28.41817 -133.98318 36263 ft 491 kts 213°
2026-05-05 19:39 28.35799 -134.01992 36263 ft 491 kts 213°
2026-05-05 19:39 28.29782 -134.05660 36260 ft 491 kts 213°
2026-05-05 19:40 28.23764 -134.09324 36259 ft 491 kts 213°
2026-05-05 19:40 28.17745 -134.12985 36251 ft 491 kts 212°
2026-05-05 19:41 28.11729 -134.16640 36257 ft 491 kts 212°
2026-05-05 19:41 28.05709 -134.20291 36260 ft 491 kts 212°
2026-05-05 19:42 27.99688 -134.23938 36256 ft 491 kts 212°
2026-05-05 19:42 27.93670 -134.27578 36260 ft 491 kts 212°
2026-05-05 19:43 27.87651 -134.31216 36259 ft 491 kts 212°
2026-05-05 19:43 27.81631 -134.34849 36260 ft 491 kts 212°
2026-05-05 19:44 27.75649 -134.38455 36259 ft 491 kts 212°
2026-05-05 19:44 27.69585 -134.42105 36257 ft 491 kts 212°
2026-05-05 19:45 27.63565 -134.45724 36260 ft 490 kts 212°
2026-05-05 19:45 27.57584 -134.49316 36260 ft 490 kts 212°
2026-05-05 19:46 27.51564 -134.52926 36261 ft 490 kts 212°
2026-05-05 19:46 27.45547 -134.56530 36256 ft 490 kts 212°
2026-05-05 19:47 27.39528 -134.60131 36261 ft 490 kts 212°
2026-05-05 19:47 27.33509 -134.63727 36263 ft 490 kts 212°
2026-05-05 19:48 27.27490 -134.67319 36258 ft 490 kts 212°
2026-05-05 19:48 27.21473 -134.70905 36256 ft 490 kts 212°
2026-05-05 19:49 27.15453 -134.74489 36255 ft 490 kts 212°
2026-05-05 19:49 27.09433 -134.78068 36259 ft 490 kts 211°
2026-05-05 19:50 27.03408 -134.81645 36263 ft 490 kts 211°
2026-05-05 19:50 26.98409 -134.84610 36254 ft 489 kts 211°
2026-05-05 19:51 26.92394 -134.88174 36265 ft 489 kts 211°
2026-05-05 19:51 26.86376 -134.91735 36258 ft 489 kts 211°
2026-05-05 19:52 26.80360 -134.95291 36257 ft 489 kts 211°
2026-05-05 19:52 26.74342 -134.98843 36254 ft 488 kts 211°
2026-05-05 19:53 26.68335 -135.02385 36255 ft 488 kts 211°
2026-05-05 19:53 26.62339 -135.05916 36255 ft 487 kts 211°
2026-05-05 19:54 26.56340 -135.09445 36245 ft 487 kts 211°
2026-05-05 19:54 26.50349 -135.12964 36252 ft 486 kts 211°
2026-05-05 19:55 26.44401 -135.16455 36253 ft 486 kts 211°
2026-05-05 19:55 26.38413 -135.19965 36250 ft 486 kts 211°
2026-05-05 19:56 26.32433 -135.23466 36249 ft 485 kts 211°
2026-05-05 19:56 26.26451 -135.26964 36250 ft 485 kts 211°
2026-05-05 19:57 26.20470 -135.30457 36247 ft 485 kts 211°
2026-05-05 19:57 26.14497 -135.33942 36242 ft 484 kts 211°
2026-05-05 19:58 26.08527 -135.37421 36249 ft 484 kts 211°
2026-05-05 19:58 26.02556 -135.40896 36248 ft 484 kts 211°
2026-05-05 19:59 25.96590 -135.44365 36248 ft 483 kts 211°
2026-05-05 19:59 25.90629 -135.47826 36243 ft 483 kts 211°
2026-05-05 20:00 25.84670 -135.51282 36244 ft 483 kts 212°
2026-05-05 20:00 25.78721 -135.54729 36254 ft 482 kts 212°
2026-05-05 20:01 25.72774 -135.58171 36256 ft 482 kts 211°
2026-05-05 20:01 25.66826 -135.61610 36243 ft 482 kts 211°
2026-05-05 20:02 25.60916 -135.65022 36247 ft 482 kts 211°
2026-05-05 20:02 25.54959 -135.68457 36237 ft 482 kts 211°
2026-05-05 20:03 25.49008 -135.71885 36234 ft 482 kts 212°
2026-05-05 20:03 25.43062 -135.75306 36233 ft 481 kts 212°
2026-05-05 20:04 25.37122 -135.78721 36244 ft 481 kts 212°
2026-05-05 20:04 25.31178 -135.82134 36233 ft 481 kts 212°
2026-05-05 20:05 25.25243 -135.85537 36229 ft 480 kts 212°
2026-05-05 20:05 25.19314 -135.88934 36243 ft 480 kts 212°
2026-05-05 20:06 25.13381 -135.92329 36226 ft 480 kts 212°
2026-05-05 20:06 25.07459 -135.95714 36235 ft 479 kts 212°
2026-05-05 20:07 25.01536 -135.99087 36233 ft 480 kts 210°
2026-05-05 20:07 24.95343 -136.01928 36223 ft 483 kts 206°
2026-05-05 20:08 24.89055 -136.04565 36233 ft 483 kts 205°
2026-05-05 20:08 24.82758 -136.07159 36230 ft 483 kts 205°
2026-05-05 20:09 24.76462 -136.09756 36231 ft 483 kts 205°
2026-05-05 20:09 24.70175 -136.12357 36227 ft 482 kts 206°
2026-05-05 20:10 24.63899 -136.14955 36227 ft 482 kts 206°
2026-05-05 20:10 24.57624 -136.17552 36228 ft 482 kts 205°
2026-05-05 20:11 24.51346 -136.20145 36222 ft 481 kts 206°
2026-05-05 20:11 24.45083 -136.22730 36220 ft 481 kts 206°
2026-05-05 20:12 24.38860 -136.25296 36221 ft 481 kts 206°
2026-05-05 20:12 24.32596 -136.27875 36214 ft 480 kts 206°
2026-05-05 20:13 24.26340 -136.30448 36214 ft 480 kts 206°
2026-05-05 20:13 24.20090 -136.33017 36216 ft 480 kts 206°
2026-05-05 20:14 24.13837 -136.35583 36208 ft 480 kts 206°
2026-05-05 20:14 24.07588 -136.38145 36214 ft 479 kts 206°
2026-05-05 20:15 24.01342 -136.40704 36211 ft 479 kts 206°
2026-05-05 20:15 23.95092 -136.43261 36200 ft 479 kts 206°
2026-05-05 20:16 23.88846 -136.45814 36211 ft 479 kts 206°
2026-05-05 20:16 23.82605 -136.48363 36208 ft 479 kts 206°
2026-05-05 20:17 23.76361 -136.50910 36205 ft 479 kts 206°
2026-05-05 20:17 23.70119 -136.53454 36205 ft 479 kts 206°
2026-05-05 20:18 23.63875 -136.55996 36206 ft 479 kts 206°
2026-05-05 20:18 23.57632 -136.58535 36205 ft 479 kts 206°
2026-05-05 20:19 23.51388 -136.61071 36201 ft 479 kts 206°
2026-05-05 20:19 23.45145 -136.63604 36200 ft 479 kts 206°
2026-05-05 20:20 23.38906 -136.66134 36198 ft 479 kts 206°
2026-05-05 20:20 23.32664 -136.68662 36192 ft 478 kts 206°
2026-05-05 20:21 23.26432 -136.71183 36198 ft 478 kts 206°
2026-05-05 20:21 23.20197 -136.73704 36195 ft 478 kts 206°
2026-05-05 20:22 23.13964 -136.76221 36186 ft 478 kts 206°
2026-05-05 20:22 23.07731 -136.78736 36197 ft 478 kts 206°
2026-05-05 20:23 23.01501 -136.81246 36193 ft 478 kts 206°
2026-05-05 20:23 22.95269 -136.83755 36190 ft 478 kts 206°
2026-05-05 20:24 22.89039 -136.86261 36188 ft 478 kts 206°
2026-05-05 20:24 22.82807 -136.88765 36188 ft 478 kts 206°
2026-05-05 20:25 22.76573 -136.91268 36190 ft 478 kts 206°
2026-05-05 20:25 22.70338 -136.93768 36187 ft 478 kts 206°
2026-05-05 20:26 22.64102 -136.96267 36188 ft 478 kts 206°
2026-05-05 20:26 22.57863 -136.98764 36177 ft 478 kts 206°
2026-05-05 20:27 22.51623 -137.01260 36180 ft 478 kts 206°
2026-05-05 20:27 22.45423 -137.03736 36183 ft 478 kts 206°
2026-05-05 20:28 22.39176 -137.06229 36182 ft 478 kts 206°
2026-05-05 20:28 22.32931 -137.08719 36181 ft 479 kts 206°
2026-05-05 20:29 22.26681 -137.11209 36177 ft 479 kts 206°
2026-05-05 20:29 22.20432 -137.13695 36175 ft 479 kts 206°
2026-05-05 20:30 22.14186 -137.16178 36175 ft 479 kts 206°
2026-05-05 20:30 22.07936 -137.18661 36163 ft 479 kts 206°
2026-05-05 20:31 22.01681 -137.21144 36171 ft 479 kts 206°
2026-05-05 20:31 21.95425 -137.23624 36170 ft 479 kts 206°
2026-05-05 20:32 21.89173 -137.26100 36170 ft 479 kts 206°
2026-05-05 20:32 21.82917 -137.28576 36169 ft 479 kts 206°
2026-05-05 20:33 21.76663 -137.31048 36169 ft 479 kts 206°
2026-05-05 20:33 21.70406 -137.33520 36167 ft 479 kts 206°
2026-05-05 20:34 21.64153 -137.35987 36167 ft 479 kts 206°
2026-05-05 20:34 21.57896 -137.38454 36166 ft 479 kts 206°
2026-05-05 20:35 21.51641 -137.40918 36166 ft 479 kts 206°
2026-05-05 20:35 21.45424 -137.43364 36167 ft 479 kts 206°
2026-05-05 20:36 21.39169 -137.45823 36162 ft 479 kts 206°
2026-05-05 20:36 21.32912 -137.48281 36161 ft 479 kts 206°
2026-05-05 20:37 21.26658 -137.50735 36158 ft 479 kts 206°
2026-05-05 20:37 21.20404 -137.53187 36153 ft 479 kts 206°
2026-05-05 20:38 21.15203 -137.55225 36157 ft 479 kts 206°
2026-05-05 20:38 21.08946 -137.57674 36155 ft 479 kts 206°
2026-05-05 20:39 21.02687 -137.60122 36148 ft 479 kts 206°
2026-05-05 20:39 20.96430 -137.62567 36153 ft 479 kts 206°
2026-05-05 20:40 20.90171 -137.65011 36151 ft 479 kts 206°
2026-05-05 20:40 20.83911 -137.67452 36150 ft 479 kts 206°
2026-05-05 20:41 20.77652 -137.69892 36140 ft 479 kts 206°
2026-05-05 20:41 20.71391 -137.72329 36146 ft 479 kts 206°
2026-05-05 20:42 20.65130 -137.74765 36140 ft 479 kts 206°
2026-05-05 20:42 20.58867 -137.77200 36140 ft 479 kts 206°
2026-05-05 20:43 20.52606 -137.79631 36140 ft 479 kts 206°
2026-05-05 20:43 20.46385 -137.82044 36138 ft 479 kts 206°
2026-05-05 20:44 20.40123 -137.84472 36138 ft 479 kts 206°
2026-05-05 20:44 20.33861 -137.86898 36124 ft 479 kts 206°
2026-05-05 20:45 20.24464 -137.90533 36135 ft 479 kts 206°
2026-05-05 20:45 20.18197 -137.92956 36132 ft 479 kts 206°
2026-05-05 20:46 20.11931 -137.95376 36115 ft 479 kts 206°
2026-05-05 20:46 20.05668 -137.97791 36135 ft 479 kts 207°
2026-05-05 20:47 19.99321 -138.00014 36133 ft 485 kts 200°
2026-05-05 20:47 19.92698 -138.01532 36129 ft 488 kts 198°
2026-05-05 20:48 19.86072 -138.02888 36123 ft 489 kts 198°
2026-05-05 20:48 19.79395 -138.04231 36126 ft 488 kts 198°
2026-05-05 20:49 19.72724 -138.05588 36128 ft 488 kts 198°
2026-05-05 20:49 19.66053 -138.06954 36130 ft 488 kts 198°
2026-05-05 20:50 19.59385 -138.08322 36124 ft 488 kts 198°
2026-05-05 20:50 19.52719 -138.09687 36121 ft 488 kts 198°
2026-05-05 20:51 19.46057 -138.11051 36119 ft 488 kts 198°
2026-05-05 20:51 19.39391 -138.12414 36119 ft 488 kts 198°
2026-05-05 20:52 19.32730 -138.13775 36118 ft 488 kts 198°
2026-05-05 20:52 19.26063 -138.15136 36119 ft 488 kts 198°
2026-05-05 20:53 19.19445 -138.16486 36119 ft 488 kts 198°
2026-05-05 20:53 19.12781 -138.17843 36116 ft 487 kts 198°
2026-05-05 20:54 19.06126 -138.19197 36116 ft 487 kts 198°
2026-05-05 20:54 18.99472 -138.20551 36115 ft 487 kts 198°
2026-05-05 20:55 18.92816 -138.21904 36092 ft 487 kts 198°
2026-05-05 20:55 18.86162 -138.23256 36116 ft 487 kts 198°
2026-05-05 20:56 18.79510 -138.24605 36113 ft 487 kts 198°
2026-05-05 20:56 18.72855 -138.25955 36110 ft 487 kts 198°
2026-05-05 20:57 18.66200 -138.27304 36105 ft 487 kts 199°
2026-05-05 20:57 18.59539 -138.28653 36108 ft 488 kts 198°
2026-05-05 20:58 18.52872 -138.30002 36107 ft 488 kts 198°
2026-05-05 20:58 18.46204 -138.31349 36105 ft 488 kts 198°
2026-05-05 20:59 18.39533 -138.32697 36099 ft 489 kts 198°
2026-05-05 20:59 18.32848 -138.34046 36100 ft 489 kts 198°
2026-05-05 21:00 18.26164 -138.35394 36114 ft 489 kts 198°
2026-05-05 21:00 18.19474 -138.36741 36096 ft 489 kts 198°
2026-05-05 21:01 18.12783 -138.38089 36100 ft 490 kts 198°
2026-05-05 21:01 18.06093 -138.39435 36099 ft 490 kts 198°
2026-05-05 21:02 17.99445 -138.40771 36100 ft 490 kts 198°
2026-05-05 21:02 17.92755 -138.42115 36094 ft 490 kts 198°
2026-05-05 21:03 17.86056 -138.43460 36093 ft 490 kts 198°
2026-05-05 21:03 17.79357 -138.44803 36092 ft 490 kts 198°
2026-05-05 21:04 17.72664 -138.46144 36094 ft 490 kts 198°
2026-05-05 21:04 17.65968 -138.47485 36089 ft 489 kts 198°
2026-05-05 21:05 17.59280 -138.48823 36086 ft 489 kts 198°
2026-05-05 21:05 17.52595 -138.50160 36086 ft 489 kts 198°
2026-05-05 21:06 17.45907 -138.51497 36070 ft 489 kts 198°
2026-05-05 21:06 17.39220 -138.52832 36081 ft 489 kts 198°
2026-05-05 21:07 17.32535 -138.54166 36083 ft 489 kts 198°
2026-05-05 21:07 17.25852 -138.55498 36082 ft 489 kts 198°
2026-05-05 21:08 17.19169 -138.56830 36073 ft 489 kts 197°
2026-05-05 21:08 17.12530 -138.58151 36078 ft 489 kts 197°
2026-05-05 21:09 17.05848 -138.59480 36078 ft 489 kts 197°
2026-05-05 21:09 16.99166 -138.60809 36072 ft 489 kts 197°
2026-05-05 21:10 16.92487 -138.62136 36074 ft 489 kts 197°
2026-05-05 21:10 16.85802 -138.63462 36073 ft 489 kts 197°
2026-05-05 21:11 16.79121 -138.64788 36073 ft 489 kts 197°
2026-05-05 21:11 16.72440 -138.66112 36072 ft 488 kts 197°
2026-05-05 21:12 16.65765 -138.67435 36069 ft 488 kts 197°
2026-05-05 21:12 16.59092 -138.68755 36066 ft 488 kts 197°
2026-05-05 21:13 16.52418 -138.70075 36069 ft 488 kts 197°
2026-05-05 21:13 16.45743 -138.71395 36055 ft 488 kts 197°
2026-05-05 21:14 16.39066 -138.72714 36064 ft 488 kts 197°
2026-05-05 21:14 16.32434 -138.74023 36064 ft 488 kts 197°
2026-05-05 21:15 16.25757 -138.75339 36062 ft 488 kts 197°
2026-05-05 21:15 16.19083 -138.76655 36061 ft 488 kts 197°
2026-05-05 21:16 16.12401 -138.77972 36058 ft 489 kts 197°
2026-05-05 21:16 16.05719 -138.79286 36056 ft 489 kts 197°
2026-05-05 21:17 15.99036 -138.80601 36054 ft 489 kts 197°
2026-05-05 21:17 15.92353 -138.81915 36052 ft 489 kts 196°
2026-05-05 21:18 15.85666 -138.83228 36050 ft 489 kts 196°
2026-05-05 21:18 15.78975 -138.84542 36049 ft 489 kts 196°
2026-05-05 21:19 15.72283 -138.85854 36049 ft 489 kts 196°
2026-05-05 21:19 15.65588 -138.87167 36044 ft 490 kts 196°
2026-05-05 21:20 15.58888 -138.88480 36041 ft 490 kts 196°
2026-05-05 21:20 15.52183 -138.89792 36042 ft 490 kts 196°
2026-05-05 21:21 15.45478 -138.91104 36036 ft 490 kts 196°
2026-05-05 21:21 15.38776 -138.92414 36037 ft 490 kts 196°
2026-05-05 21:22 15.32075 -138.93723 36037 ft 490 kts 196°
2026-05-05 21:22 15.25377 -138.95031 36031 ft 490 kts 196°
2026-05-05 21:23 15.18677 -138.96339 36021 ft 490 kts 195°
2026-05-05 21:23 15.11976 -138.97646 36028 ft 490 kts 195°
2026-05-05 21:24 15.05324 -138.98942 36028 ft 490 kts 195°
2026-05-05 21:24 14.98628 -139.00253 36029 ft 490 kts 196°
2026-05-05 21:25 14.91942 -139.01609 36023 ft 489 kts 196°
2026-05-05 21:25 14.85262 -139.02980 36023 ft 489 kts 196°
2026-05-05 21:26 14.78582 -139.04348 36023 ft 489 kts 196°
2026-05-05 21:26 14.71903 -139.05710 36018 ft 489 kts 196°
2026-05-05 21:27 14.65219 -139.07071 36016 ft 490 kts 195°
2026-05-05 21:27 14.58533 -139.08432 36019 ft 490 kts 195°
2026-05-05 21:28 14.51850 -139.09791 36010 ft 489 kts 195°
2026-05-05 21:28 14.45168 -139.11149 36006 ft 489 kts 195°
2026-05-05 21:29 14.39617 -139.12277 36013 ft 489 kts 195°
2026-05-05 21:29 14.32935 -139.13633 36013 ft 489 kts 195°
2026-05-05 21:30 14.26256 -139.14989 36013 ft 489 kts 195°
2026-05-05 21:30 14.19572 -139.16344 36013 ft 489 kts 195°
2026-05-05 21:31 14.12890 -139.17699 36006 ft 490 kts 195°
2026-05-05 21:31 14.06200 -139.19054 36007 ft 490 kts 195°
2026-05-05 21:32 13.99509 -139.20408 36004 ft 490 kts 195°
2026-05-05 21:32 13.92821 -139.21761 36001 ft 490 kts 195°
2026-05-05 21:33 13.86131 -139.23114 36000 ft 490 kts 195°
2026-05-05 21:33 13.79440 -139.24466 36002 ft 490 kts 195°
2026-05-05 21:34 13.72743 -139.25818 35996 ft 490 kts 195°
2026-05-05 21:34 13.66051 -139.27169 35996 ft 490 kts 195°
2026-05-05 21:35 13.59358 -139.28519 35993 ft 490 kts 195°
2026-05-05 21:35 13.52661 -139.29870 35993 ft 491 kts 195°
2026-05-05 21:36 13.45960 -139.31220 35990 ft 490 kts 195°
2026-05-05 21:36 13.39266 -139.32567 35990 ft 490 kts 195°
2026-05-05 21:37 13.32572 -139.33915 35990 ft 491 kts 195°
2026-05-05 21:37 13.25871 -139.35263 35988 ft 491 kts 195°
2026-05-05 21:38 13.19213 -139.36601 35985 ft 491 kts 195°
2026-05-05 21:38 13.12464 -139.37957 35985 ft 491 kts 195°
2026-05-05 21:39 13.05759 -139.39304 35982 ft 491 kts 195°
2026-05-05 21:39 12.99089 -139.40643 35982 ft 492 kts 195°
2026-05-05 21:40 12.92374 -139.41990 35982 ft 492 kts 195°
2026-05-05 21:40 12.85658 -139.43336 35980 ft 492 kts 195°
2026-05-05 21:41 12.78938 -139.44683 35980 ft 493 kts 195°
2026-05-05 21:41 12.72204 -139.46032 35977 ft 493 kts 195°
2026-05-05 21:42 12.65465 -139.47380 35974 ft 494 kts 195°
2026-05-05 21:42 12.58725 -139.48728 35975 ft 494 kts 194°
2026-05-05 21:43 12.51977 -139.50078 35972 ft 495 kts 194°
2026-05-05 21:43 12.45214 -139.51429 35971 ft 495 kts 194°
2026-05-05 21:44 12.38451 -139.52779 35972 ft 495 kts 194°
2026-05-05 21:44 12.31697 -139.54127 35969 ft 494 kts 194°
2026-05-05 21:45 12.24947 -139.55473 35969 ft 494 kts 194°
2026-05-05 21:45 12.18195 -139.56820 35969 ft 494 kts 194°
2026-05-05 21:46 12.11485 -139.58157 35963 ft 495 kts 194°
2026-05-05 21:46 12.04730 -139.59503 35962 ft 495 kts 194°
2026-05-05 21:47 11.97978 -139.60847 35964 ft 494 kts 193°
2026-05-05 21:47 11.91234 -139.62188 35959 ft 494 kts 193°
2026-05-05 21:48 11.84493 -139.63529 35960 ft 494 kts 193°
2026-05-05 21:48 11.77753 -139.64869 35960 ft 494 kts 193°
2026-05-05 21:49 11.71012 -139.66208 35956 ft 494 kts 193°
2026-05-05 21:49 11.64269 -139.67548 35958 ft 494 kts 193°
2026-05-05 21:50 11.57525 -139.68886 35957 ft 494 kts 193°
2026-05-05 21:50 11.50784 -139.70224 35958 ft 494 kts 193°
2026-05-05 21:51 11.44040 -139.71561 35954 ft 494 kts 194°
2026-05-05 21:51 11.37298 -139.72898 35955 ft 494 kts 194°
2026-05-05 21:52 11.27183 -139.74902 35957 ft 494 kts 193°
2026-05-05 21:53 11.20489 -139.76227 35949 ft 493 kts 194°
2026-05-05 21:53 11.13751 -139.77560 35949 ft 493 kts 194°
2026-05-05 21:54 11.07013 -139.78893 35954 ft 493 kts 194°
2026-05-05 21:54 11.00273 -139.80226 35952 ft 493 kts 194°
2026-05-05 21:55 10.93536 -139.81557 35950 ft 493 kts 194°
2026-05-05 21:55 10.86791 -139.82889 35953 ft 494 kts 194°
2026-05-05 21:56 10.80045 -139.84221 35946 ft 494 kts 194°
2026-05-05 21:56 10.73298 -139.85553 35945 ft 494 kts 194°
2026-05-05 21:57 10.66552 -139.86883 35942 ft 494 kts 194°
2026-05-05 21:57 10.59801 -139.88214 35944 ft 494 kts 193°
2026-05-05 21:58 10.53046 -139.89546 35944 ft 495 kts 193°
2026-05-05 21:58 10.46288 -139.90876 35941 ft 495 kts 193°
2026-05-05 21:59 10.39533 -139.92207 35936 ft 494 kts 193°
2026-05-05 21:59 10.32773 -139.93537 35936 ft 495 kts 193°
2026-05-05 22:00 10.26009 -139.94867 35937 ft 495 kts 193°
2026-05-05 22:00 10.19249 -139.96197 35939 ft 495 kts 193°
2026-05-05 22:01 10.12530 -139.97517 35933 ft 495 kts 193°
2026-05-05 22:01 10.05763 -139.98847 35934 ft 496 kts 193°
2026-05-05 22:02 9.98989 -140.00164 35934 ft 496 kts 193°
2026-05-05 22:02 9.92183 -140.01346 35931 ft 496 kts 192°
2026-05-05 22:03 9.85365 -140.02475 35927 ft 496 kts 192°
2026-05-05 22:03 9.78546 -140.03612 35931 ft 497 kts 192°
2026-05-05 22:04 9.71723 -140.04761 35925 ft 497 kts 192°
2026-05-05 22:04 9.64898 -140.05915 35926 ft 497 kts 192°
2026-05-05 22:05 9.58073 -140.07068 35922 ft 497 kts 192°
2026-05-05 22:05 9.51246 -140.08222 35917 ft 498 kts 192°
2026-05-05 22:06 9.44411 -140.09375 35922 ft 498 kts 192°
2026-05-05 22:06 9.37577 -140.10528 35921 ft 498 kts 192°
2026-05-05 22:07 9.30743 -140.11681 35924 ft 498 kts 192°
2026-05-05 22:07 9.23909 -140.12833 35916 ft 498 kts 192°
2026-05-05 22:08 9.17074 -140.13985 35915 ft 498 kts 192°
2026-05-05 22:08 9.10239 -140.15136 35912 ft 498 kts 192°
2026-05-05 22:09 9.03403 -140.16287 35913 ft 498 kts 192°
2026-05-05 22:09 8.96614 -140.17430 35912 ft 498 kts 192°
2026-05-05 22:10 8.89780 -140.18580 35911 ft 498 kts 192°
2026-05-05 22:10 8.82944 -140.19729 35905 ft 498 kts 192°
2026-05-05 22:11 8.76112 -140.20878 35911 ft 498 kts 192°
2026-05-05 22:11 8.69281 -140.22026 35908 ft 497 kts 192°
2026-05-05 22:12 8.62453 -140.23173 35905 ft 497 kts 192°
2026-05-05 22:12 8.55627 -140.24320 35911 ft 497 kts 192°
2026-05-05 22:13 8.48801 -140.25465 35906 ft 497 kts 192°
2026-05-05 22:13 8.41971 -140.26612 35907 ft 498 kts 192°
2026-05-05 22:14 8.35136 -140.27758 35908 ft 498 kts 192°
2026-05-05 22:14 8.28298 -140.28905 35904 ft 498 kts 192°
2026-05-05 22:15 8.21463 -140.30051 35907 ft 498 kts 192°
2026-05-05 22:15 8.14625 -140.31197 35906 ft 499 kts 192°
2026-05-05 22:16 8.07770 -140.32345 35903 ft 499 kts 192°
2026-05-05 22:16 8.00913 -140.33494 35898 ft 500 kts 192°
2026-05-05 22:17 7.95210 -140.34448 35902 ft 500 kts 192°
2026-05-05 22:17 7.87240 -140.35782 35901 ft 500 kts 192°
2026-05-05 22:18 7.80358 -140.36934 35896 ft 502 kts 192°
2026-05-05 22:18 7.74583 -140.37900 35900 ft 502 kts 192°
2026-05-05 22:19 7.67691 -140.39052 35900 ft 502 kts 192°
2026-05-05 22:19 7.60843 -140.40196 35896 ft 502 kts 192°
2026-05-05 22:20 7.53942 -140.41350 35897 ft 503 kts 191°
2026-05-05 22:20 7.47034 -140.42503 35893 ft 503 kts 191°
2026-05-05 22:21 7.40135 -140.43653 35894 ft 502 kts 191°
2026-05-05 22:21 7.33238 -140.44802 35897 ft 502 kts 191°
2026-05-05 22:22 7.26342 -140.45954 35894 ft 502 kts 191°
2026-05-05 22:22 7.19444 -140.47107 35890 ft 502 kts 191°
2026-05-05 22:23 7.12548 -140.48258 35887 ft 502 kts 191°
2026-05-05 22:23 7.05654 -140.49408 35887 ft 502 kts 191°
2026-05-05 22:24 6.98760 -140.50556 35892 ft 502 kts 191°
2026-05-05 22:24 6.91874 -140.51703 35890 ft 501 kts 191°
2026-05-05 22:25 6.84989 -140.52850 35891 ft 501 kts 191°
2026-05-05 22:25 6.78106 -140.53996 35890 ft 501 kts 191°
2026-05-05 22:26 6.71219 -140.55143 35893 ft 502 kts 190°
2026-05-05 22:26 6.64334 -140.56288 35893 ft 502 kts 191°
2026-05-05 22:27 6.57443 -140.57434 35893 ft 502 kts 190°
2026-05-05 22:27 6.50554 -140.58580 35886 ft 502 kts 191°
2026-05-05 22:28 6.43663 -140.59726 35892 ft 503 kts 190°
2026-05-05 22:28 6.36751 -140.60875 35895 ft 504 kts 190°
2026-05-05 22:29 6.29827 -140.62026 35893 ft 504 kts 190°
2026-05-05 22:29 6.22904 -140.63176 35887 ft 504 kts 190°
2026-05-05 22:30 6.16029 -140.64317 35886 ft 504 kts 190°
2026-05-05 22:30 6.09107 -140.65467 35890 ft 504 kts 191°
2026-05-05 22:31 6.02195 -140.66615 35890 ft 503 kts 190°
2026-05-05 22:31 5.95288 -140.67761 35884 ft 503 kts 191°
2026-05-05 22:32 5.88381 -140.68907 35885 ft 503 kts 191°
2026-05-05 22:32 5.81472 -140.70052 35888 ft 503 kts 191°
2026-05-05 22:33 5.74568 -140.71199 35891 ft 503 kts 191°
2026-05-05 22:33 5.67665 -140.72345 35886 ft 503 kts 191°
2026-05-05 22:34 5.60760 -140.73489 35880 ft 503 kts 191°
2026-05-05 22:34 5.53839 -140.74637 35881 ft 505 kts 191°
2026-05-05 22:35 5.46893 -140.75787 35887 ft 506 kts 191°
2026-05-05 22:35 5.39942 -140.76938 35890 ft 506 kts 191°
2026-05-05 22:36 5.33036 -140.78081 35882 ft 506 kts 191°
2026-05-05 22:36 5.26079 -140.79234 35885 ft 507 kts 190°
2026-05-05 22:37 5.19114 -140.80386 35885 ft 507 kts 191°
2026-05-05 22:37 5.12146 -140.81539 35882 ft 507 kts 190°
2026-05-05 22:38 5.05181 -140.82691 35888 ft 508 kts 191°
2026-05-05 22:38 4.98210 -140.83844 35884 ft 508 kts 191°
2026-05-05 22:39 4.91241 -140.84997 35885 ft 508 kts 191°
2026-05-05 22:39 4.84266 -140.86150 35879 ft 508 kts 191°
2026-05-05 22:40 4.77290 -140.87304 35882 ft 508 kts 190°
2026-05-05 22:40 4.70315 -140.88457 35883 ft 508 kts 191°
2026-05-05 22:41 4.63334 -140.89611 35884 ft 509 kts 191°
2026-05-05 22:41 4.56344 -140.90766 35887 ft 509 kts 191°
2026-05-05 22:42 4.49354 -140.91921 35879 ft 509 kts 191°
2026-05-05 22:42 4.42367 -140.93075 35880 ft 509 kts 190°
2026-05-05 22:43 4.35376 -140.94229 35880 ft 509 kts 191°
2026-05-05 22:43 4.28433 -140.95376 35887 ft 509 kts 191°
2026-05-05 22:44 4.21442 -140.96530 35882 ft 509 kts 191°
2026-05-05 22:44 4.14453 -140.97683 35879 ft 509 kts 191°
2026-05-05 22:45 4.07456 -140.98838 35881 ft 510 kts 191°
2026-05-05 22:45 4.00452 -140.99994 35884 ft 510 kts 190°
2026-05-05 22:46 3.93447 -141.01149 35887 ft 510 kts 191°
2026-05-05 22:46 3.86441 -141.02305 35882 ft 510 kts 190°
2026-05-05 22:47 3.79431 -141.03461 35887 ft 511 kts 190°
2026-05-05 22:47 3.72417 -141.04617 35879 ft 511 kts 191°
2026-05-05 22:48 3.65401 -141.05773 35885 ft 511 kts 191°
2026-05-05 22:48 3.58385 -141.06930 35882 ft 511 kts 191°
2026-05-05 22:49 3.51369 -141.08099 35876 ft 511 kts 192°
2026-05-05 22:49 3.44459 -141.09752 35880 ft 511 kts 195°
2026-05-05 22:50 3.37585 -141.11541 35878 ft 511 kts 196°
2026-05-05 22:50 3.30717 -141.13359 35880 ft 510 kts 196°
2026-05-05 22:51 3.23848 -141.15172 35883 ft 510 kts 196°
2026-05-05 22:51 3.16980 -141.16977 35881 ft 510 kts 196°
2026-05-05 22:52 3.10110 -141.18779 35882 ft 510 kts 196°
2026-05-05 22:52 3.03240 -141.20581 35879 ft 510 kts 196°
2026-05-05 22:53 2.96416 -141.22371 35882 ft 511 kts 196°
2026-05-05 22:53 2.89491 -141.24187 35882 ft 511 kts 196°
2026-05-05 22:54 2.82654 -141.25980 35883 ft 511 kts 196°
2026-05-05 22:54 2.75774 -141.27784 35880 ft 511 kts 196°
2026-05-05 22:55 2.68894 -141.29588 35880 ft 511 kts 196°
2026-05-05 22:55 2.62006 -141.31394 35880 ft 512 kts 196°
2026-05-05 22:56 2.55113 -141.33201 35888 ft 512 kts 196°
2026-05-05 22:56 2.48221 -141.35007 35880 ft 512 kts 196°
2026-05-05 22:57 2.41339 -141.36810 35883 ft 511 kts 196°
2026-05-05 22:57 2.34456 -141.38614 35877 ft 511 kts 196°
2026-05-05 22:58 2.27569 -141.40419 35877 ft 512 kts 196°
2026-05-05 22:58 2.20681 -141.42224 35876 ft 512 kts 196°
2026-05-05 22:59 2.13789 -141.44030 35878 ft 512 kts 196°
2026-05-05 22:59 2.06899 -141.45834 35881 ft 512 kts 196°
2026-05-05 23:00 1.96603 -141.48531 35878 ft 512 kts 196°
2026-05-05 23:00 1.89706 -141.50337 35886 ft 512 kts 196°
2026-05-05 23:01 1.82806 -141.52144 35877 ft 512 kts 196°
2026-05-05 23:01 1.75910 -141.53949 35875 ft 512 kts 196°
2026-05-05 23:02 1.69019 -141.55750 35878 ft 512 kts 196°
2026-05-05 23:02 1.62129 -141.57553 35877 ft 512 kts 196°
2026-05-05 23:03 1.55258 -141.59353 35876 ft 509 kts 196°
2026-05-05 23:03 1.48406 -141.61148 35874 ft 509 kts 196°
2026-05-05 23:04 1.41553 -141.62942 35875 ft 509 kts 196°
2026-05-05 23:04 1.34699 -141.64736 35875 ft 509 kts 196°
2026-05-05 23:05 1.27846 -141.66529 35877 ft 509 kts 196°
2026-05-05 23:05 1.21039 -141.68310 35878 ft 509 kts 196°
2026-05-05 23:06 1.14185 -141.70105 35876 ft 509 kts 196°
2026-05-05 23:06 1.07331 -141.71898 35875 ft 509 kts 196°
2026-05-05 23:07 1.00477 -141.73692 35873 ft 509 kts 196°
2026-05-05 23:07 0.93622 -141.75485 35873 ft 509 kts 196°
2026-05-05 23:08 0.87925 -141.76976 35873 ft 509 kts 196°
2026-05-05 23:08 0.81073 -141.78768 35874 ft 509 kts 196°
2026-05-05 23:09 0.74216 -141.80562 35873 ft 509 kts 196°
2026-05-05 23:09 0.67368 -141.82354 35873 ft 508 kts 196°
2026-05-05 23:10 0.60526 -141.84143 35873 ft 508 kts 196°
2026-05-05 23:10 0.53686 -141.85932 35873 ft 508 kts 196°
2026-05-05 23:11 0.46852 -141.87720 35873 ft 508 kts 196°
2026-05-05 23:11 0.40012 -141.89510 35873 ft 508 kts 196°
2026-05-05 23:12 0.33177 -141.91297 35873 ft 508 kts 196°
2026-05-05 23:12 0.26342 -141.93085 35873 ft 508 kts 196°
2026-05-05 23:13 0.19507 -141.94873 35873 ft 508 kts 196°
2026-05-05 23:13 0.12670 -141.96662 35873 ft 508 kts 196°
2026-05-05 23:14 0.05837 -141.98449 35870 ft 508 kts 196°
2026-05-05 23:14 -0.01004 -142.00233 35870 ft 508 kts 195°
2026-05-05 23:15 -0.07855 -142.01957 35871 ft 508 kts 195°
2026-05-05 23:15 -0.14668 -142.03646 35871 ft 508 kts 195°
2026-05-05 23:16 -0.21525 -142.05349 35870 ft 508 kts 195°
2026-05-05 23:16 -0.28377 -142.07057 35870 ft 507 kts 195°
2026-05-05 23:17 -0.35265 -142.08776 35870 ft 507 kts 195°
2026-05-05 23:17 -0.42055 -142.10471 35870 ft 506 kts 195°
2026-05-05 23:18 -0.48892 -142.12178 35870 ft 506 kts 195°
2026-05-05 23:18 -0.55729 -142.13885 35870 ft 506 kts 195°
2026-05-05 23:19 -0.62563 -142.15590 35871 ft 506 kts 195°
2026-05-05 23:19 -0.69391 -142.17295 35869 ft 506 kts 195°
2026-05-05 23:20 -0.76219 -142.18999 35868 ft 506 kts 195°
2026-05-05 23:20 -0.83042 -142.20702 35867 ft 505 kts 195°
2026-05-05 23:21 -0.89867 -142.22406 35868 ft 505 kts 195°
2026-05-05 23:21 -0.96693 -142.24110 35868 ft 506 kts 195°
2026-05-05 23:22 -1.03516 -142.25813 35868 ft 506 kts 195°
2026-05-05 23:22 -1.10340 -142.27518 35867 ft 505 kts 195°
2026-05-05 23:23 -1.17165 -142.29221 35868 ft 505 kts 195°
2026-05-05 23:23 -1.23931 -142.30910 35867 ft 504 kts 195°
2026-05-05 23:24 -1.30743 -142.32612 35866 ft 504 kts 195°
2026-05-05 23:24 -1.37552 -142.34312 35864 ft 505 kts 195°
2026-05-05 23:25 -1.44364 -142.36013 35865 ft 505 kts 196°
2026-05-05 23:25 -1.51178 -142.37715 35865 ft 505 kts 195°
2026-05-05 23:26 -1.57988 -142.39416 35864 ft 504 kts 195°
2026-05-05 23:26 -1.64787 -142.41114 35865 ft 504 kts 196°
2026-05-05 23:27 -1.71588 -142.42813 35863 ft 504 kts 195°
2026-05-05 23:27 -1.78383 -142.44511 35863 ft 504 kts 195°
2026-05-05 23:28 -1.85183 -142.46210 35863 ft 503 kts 195°
2026-05-05 23:28 -1.91977 -142.47908 35862 ft 503 kts 195°
2026-05-05 23:29 -1.98771 -142.49605 35860 ft 503 kts 196°
2026-05-05 23:29 -2.05565 -142.51304 35862 ft 503 kts 195°
2026-05-05 23:30 -2.12358 -142.53001 35864 ft 503 kts 195°
2026-05-05 23:30 -2.19132 -142.54695 35864 ft 502 kts 196°
2026-05-05 23:31 -2.25901 -142.56387 35862 ft 501 kts 195°
2026-05-05 23:31 -2.32624 -142.58067 35861 ft 501 kts 195°
2026-05-05 23:32 -2.39390 -142.59760 35861 ft 501 kts 195°
2026-05-05 23:32 -2.46162 -142.61453 35861 ft 502 kts 195°
2026-05-05 23:33 -2.52947 -142.63149 35861 ft 503 kts 195°
2026-05-05 23:33 -2.59737 -142.64847 35859 ft 503 kts 195°
2026-05-05 23:34 -2.66527 -142.66545 35859 ft 503 kts 195°
2026-05-05 23:34 -2.73320 -142.68245 35858 ft 503 kts 196°
2026-05-05 23:35 -2.80112 -142.69944 35861 ft 503 kts 195°
2026-05-05 23:35 -2.86901 -142.71643 35861 ft 503 kts 195°
2026-05-05 23:36 -2.93690 -142.73342 35860 ft 503 kts 195°
2026-05-05 23:36 -3.00479 -142.75040 35860 ft 503 kts 195°
2026-05-05 23:37 -3.07223 -142.76728 35853 ft 503 kts 196°
2026-05-05 23:37 -3.14024 -142.78431 35854 ft 504 kts 195°
2026-05-05 23:38 -3.20828 -142.80135 35855 ft 504 kts 195°
2026-05-05 23:38 -3.27628 -142.81838 35852 ft 504 kts 195°
2026-05-05 23:39 -3.34430 -142.83542 35852 ft 504 kts 195°
2026-05-05 23:39 -3.41237 -142.85247 35853 ft 505 kts 195°
2026-05-05 23:40 -3.48063 -142.86956 35855 ft 506 kts 194°
2026-05-05 23:40 -3.54887 -142.88665 35854 ft 506 kts 195°
2026-05-05 23:41 -3.61711 -142.90376 35854 ft 505 kts 195°
2026-05-05 23:41 -3.68530 -142.92084 35854 ft 504 kts 195°
2026-05-05 23:42 -3.75313 -142.93785 35853 ft 502 kts 196°
2026-05-05 23:42 -3.82086 -142.95484 35854 ft 502 kts 195°
2026-05-05 23:43 -3.88854 -142.97180 35855 ft 501 kts 196°
2026-05-05 23:43 -3.95621 -142.98880 35853 ft 501 kts 195°
2026-05-05 23:44 -4.02356 -143.00676 35854 ft 500 kts 198°
2026-05-05 23:44 -4.08945 -143.02887 35853 ft 499 kts 201°
2026-05-05 23:45 -4.15485 -143.05196 35853 ft 498 kts 201°
2026-05-05 23:45 -4.22037 -143.07474 35854 ft 498 kts 201°
2026-05-05 23:46 -4.28597 -143.09719 35857 ft 499 kts 200°
2026-05-05 23:46 -4.35181 -143.11960 35856 ft 500 kts 200°
2026-05-05 23:47 -4.41775 -143.14204 35856 ft 500 kts 200°
2026-05-05 23:47 -4.48369 -143.16450 35853 ft 500 kts 200°
2026-05-05 23:48 -4.54962 -143.18697 35854 ft 501 kts 201°
2026-05-05 23:48 -4.61511 -143.20931 35854 ft 501 kts 200°
2026-05-05 23:49 -4.68117 -143.23184 35854 ft 502 kts 200°
2026-05-05 23:49 -4.74728 -143.25440 35854 ft 502 kts 200°
2026-05-05 23:50 -4.81332 -143.27693 35856 ft 501 kts 200°
2026-05-05 23:50 -4.87927 -143.29944 35856 ft 501 kts 201°
2026-05-05 23:51 -4.94522 -143.32195 35856 ft 501 kts 200°
2026-05-05 23:51 -5.01121 -143.34447 35856 ft 501 kts 200°
2026-05-05 23:52 -5.07720 -143.36701 35856 ft 501 kts 200°
2026-05-05 23:52 -5.14318 -143.38954 35856 ft 501 kts 201°
2026-05-05 23:53 -5.20916 -143.41209 35859 ft 501 kts 200°
2026-05-05 23:53 -5.27512 -143.43463 35856 ft 501 kts 200°
2026-05-05 23:54 -5.34109 -143.45717 35856 ft 501 kts 201°
2026-05-05 23:54 -5.40703 -143.47972 35856 ft 501 kts 201°
2026-05-05 23:55 -5.47298 -143.50227 35856 ft 501 kts 200°
2026-05-05 23:55 -5.52778 -143.52102 35858 ft 501 kts 201°
2026-05-05 23:56 -5.60446 -143.54725 35856 ft 501 kts 200°
2026-05-05 23:56 -5.67044 -143.56983 35856 ft 501 kts 201°
2026-05-05 23:57 -5.72573 -143.58875 35856 ft 501 kts 200°
2026-05-05 23:57 -5.79173 -143.61134 35856 ft 501 kts 201°
2026-05-05 23:58 -5.85774 -143.63394 35856 ft 501 kts 200°
2026-05-05 23:58 -5.92328 -143.65639 35856 ft 501 kts 201°
2026-05-05 23:59 -5.98926 -143.67900 35856 ft 501 kts 200°
2026-05-05 23:59 -6.05526 -143.70161 35856 ft 501 kts 200°
2026-05-06 00:00 -6.12126 -143.72424 35859 ft 501 kts 201°
2026-05-06 00:00 -6.18725 -143.74686 35859 ft 501 kts 200°
2026-05-06 00:01 -6.25313 -143.76946 35854 ft 500 kts 200°
2026-05-06 00:01 -6.31894 -143.79203 35854 ft 500 kts 200°
2026-05-06 00:02 -6.38473 -143.81461 35854 ft 500 kts 201°
2026-05-06 00:02 -6.45052 -143.83718 35852 ft 500 kts 200°
2026-05-06 00:03 -6.51631 -143.85978 35854 ft 500 kts 200°
2026-05-06 00:03 -6.58210 -143.88238 35853 ft 500 kts 200°
2026-05-06 00:04 -6.64790 -143.90498 35856 ft 500 kts 201°
2026-05-06 00:04 -6.71370 -143.92759 35856 ft 500 kts 200°
2026-05-06 00:05 -6.81239 -143.96152 35856 ft 500 kts 200°
2026-05-06 00:06 -6.87825 -143.98417 35856 ft 500 kts 200°
2026-05-06 00:06 -6.94366 -144.00666 35856 ft 500 kts 200°
2026-05-06 00:07 -7.00948 -144.02930 35857 ft 500 kts 200°
2026-05-06 00:07 -7.07528 -144.05194 35856 ft 500 kts 200°
2026-05-06 00:08 -7.14106 -144.07459 35854 ft 499 kts 200°
2026-05-06 00:08 -7.20677 -144.09722 35856 ft 499 kts 199°
2026-05-06 00:09 -7.27251 -144.11985 35861 ft 499 kts 200°
2026-05-06 00:09 -7.33823 -144.14250 35859 ft 499 kts 199°
2026-05-06 00:10 -7.40399 -144.16517 35860 ft 499 kts 200°
2026-05-06 00:10 -7.46956 -144.18778 35859 ft 498 kts 200°
2026-05-06 00:11 -7.53505 -144.21036 35862 ft 497 kts 200°
2026-05-06 00:11 -7.60053 -144.23296 35862 ft 498 kts 199°
2026-05-06 00:12 -7.66603 -144.25557 35862 ft 497 kts 200°
2026-05-06 00:12 -7.73140 -144.27815 35861 ft 496 kts 199°
2026-05-06 00:13 -7.79671 -144.30069 35862 ft 495 kts 200°
2026-05-06 00:13 -7.86190 -144.32321 35862 ft 495 kts 199°
2026-05-06 00:14 -7.92714 -144.34575 35863 ft 495 kts 200°
2026-05-06 00:14 -7.99229 -144.36828 35861 ft 495 kts 199°
2026-05-06 00:15 -8.05709 -144.39068 35860 ft 495 kts 199°
2026-05-06 00:15 -8.12210 -144.41317 35861 ft 494 kts 199°
2026-05-06 00:16 -8.18719 -144.43569 35863 ft 494 kts 200°
2026-05-06 00:16 -8.25221 -144.45820 35861 ft 494 kts 199°
2026-05-06 00:17 -8.31723 -144.48072 35862 ft 494 kts 199°
2026-05-06 00:17 -8.38224 -144.50325 35863 ft 494 kts 199°
2026-05-06 00:18 -8.44729 -144.52579 35862 ft 494 kts 199°
2026-05-06 00:18 -8.51232 -144.54833 35862 ft 494 kts 199°
2026-05-06 00:19 -8.57740 -144.57091 35861 ft 495 kts 199°
2026-05-06 00:19 -8.64242 -144.59346 35862 ft 494 kts 199°
2026-05-06 00:20 -8.70740 -144.61603 35867 ft 493 kts 199°
2026-05-06 00:20 -8.77222 -144.63854 35866 ft 491 kts 199°
2026-05-06 00:21 -8.83697 -144.66103 35868 ft 493 kts 199°
2026-05-06 00:21 -8.90179 -144.68355 35867 ft 492 kts 199°
2026-05-06 00:22 -8.96651 -144.70604 35866 ft 493 kts 199°
2026-05-06 00:22 -9.03092 -144.72844 35867 ft 492 kts 199°
2026-05-06 00:23 -9.09609 -144.75111 35869 ft 492 kts 199°
2026-05-06 00:23 -9.16038 -144.77349 35868 ft 491 kts 198°
2026-05-06 00:24 -9.22483 -144.79591 35867 ft 490 kts 198°
2026-05-06 00:24 -9.28936 -144.81837 35865 ft 490 kts 198°
2026-05-06 00:25 -9.35376 -144.84081 35867 ft 489 kts 198°
2026-05-06 00:25 -9.41808 -144.86321 35871 ft 489 kts 198°
2026-05-06 00:26 -9.48241 -144.88564 35871 ft 488 kts 198°
2026-05-06 00:26 -9.54670 -144.90806 35870 ft 489 kts 198°
2026-05-06 00:27 -9.61102 -144.93051 35870 ft 489 kts 198°
2026-05-06 00:27 -9.67523 -144.95293 35872 ft 488 kts 198°
2026-05-06 00:28 -9.73944 -144.97536 35869 ft 488 kts 198°
2026-05-06 00:28 -9.80362 -144.99778 35873 ft 488 kts 198°
2026-05-06 00:29 -9.86780 -145.02021 35873 ft 487 kts 197°
2026-05-06 00:29 -9.93188 -145.04262 35874 ft 487 kts 197°
2026-05-06 00:30 -9.99557 -145.06577 35872 ft 486 kts 202°
2026-05-06 00:30 -10.05624 -145.09515 35875 ft 487 kts 205°
2026-05-06 00:31 -10.11666 -145.12621 35877 ft 487 kts 205°
2026-05-06 00:31 -10.17692 -145.15758 35875 ft 487 kts 205°
2026-05-06 00:32 -10.23722 -145.18889 35875 ft 487 kts 205°
2026-05-06 00:32 -10.29753 -145.22011 35876 ft 486 kts 205°
2026-05-06 00:33 -10.35779 -145.25128 35876 ft 486 kts 205°
2026-05-06 00:33 -10.41805 -145.28245 35875 ft 486 kts 205°
2026-05-06 00:34 -10.47828 -145.31363 35873 ft 486 kts 205°
2026-05-06 00:34 -10.53851 -145.34482 35873 ft 486 kts 205°
2026-05-06 00:35 -10.59875 -145.37604 35873 ft 486 kts 205°
2026-05-06 00:35 -10.65892 -145.40723 35872 ft 485 kts 205°